User: anonymous   Login
Location: Newark
(40.3820°N, 3.6624°W)
Time: 21:47:33
(UTC+00:00)
Language:

N. Korean satellite - Orbit

View from above orbital plane
View from above orbital plane
View from above satellite
View from above satellite

Ground track
Ground track

The orbit data is extracted from the following two-line orbital elements,

1 39026U 12072A   19344.90794507 +.00000569 +00000-0 +22946-4 0  9991
2 39026 097.2158 342.4725 0037141 195.7978 164.2107 15.28227729388299
Epoch (UTC): 10 December 2019 21:47:26
Eccentricity: 0.0037141
inclination: 97.2158°
perigee height: 455 km
apogee height: 506 km
right ascension of ascending node: 342.4725°
argument of perigee: 195.7978°
revolutions per day: 15.28227729
mean anomaly at epoch: 164.2107°
orbit number at epoch: 38829

The dashed part of the orbit path shows where the satellite is in the earth's shadow,  

DLR